Location: Recife
(8.0585°S, 34.8848°W)
Time: 21:16:35
(UTC-03:00)

A-11 Canister half - Pass Details

Date: 21 April 2026
Orbit: 1523 x 1685 km, 47.3° (Epoch: 12 May)

Event Time Altitude Azimuth Distance (km) Brightness Sun altitude
Rises 18:52:50 0° 219° (SW) 4,706 11.9 -24.7°
Reaches altitude 10° 18:55:51 10° 218° (SW) 3,737 11.3 -25.4°
Maximum altitude 19:05:22 83° 130° (SE) 1,599 8.9 -27.8°
Enters shadow 19:10:37 32° 45° (NE) 2,479 9.7 -29.0°
Drops below altitude 10° 19:15:11 10° 43° (NE) 3,848 - -30.2°
Sets 19:18:20 0° 42° (NE) 4,853 - -30.9°
